Location: Unspecified
(0.0000°N, 0.0000°E)
Time: 13:01:38
(UTC+00:00)

TRS 6 - Pass Details

Date: 18 February 2019
Orbit: 3561 x 3726 km, 87.3° (Epoch: 18 October)

Event Time Altitude Azimuth Distance (km) Brightness Sun altitude
Rises 20:44:45 0° 192° (SSW) 7,700 ? -36.8°
Reaches altitude 10° 20:49:20 10° 197° (SSW) 6,684 ? -37.9°
Maximum altitude 21:06:53 49° 266° (W) 4,351 ? -42.2°
Drops below altitude 10° 21:25:01 10° 337° (NNW) 6,789 ? -46.5°
Sets 21:29:55 0° 343° (NNW) 7,828 ? -47.7°
